Reading, PA

9:33 PM EST on November 16, 2019 (GMT -0500)
Reading Regional-Spaatz

Weather History for KRDG - July, 2019

Change the Weather History Date:

Tuesday, July 23, 2019

  Actual Average Record
Temperature  
Mean Temperature 73 °F 75 °F  
Max Temperature 78 °F 85 °F 100 °F (2011)
Min Temperature 67 °F 64 °F 52 °F (1981)
Degree Days  
Heating Degree Days 0 0  
Month to date heating degree days 0 0  
Since 1 June heating degree days 16 24  
Since 1 July heating degree days 0 0  
Cooling Degree Days 8 10  
Month to date cooling degree days 322 227  
Year to date cooling degree days 632 476  
Since 1 June cooling degree days 527 416  
Growing Degree Days 22 (Base 50)    
Moisture  
Dew Point 67 °F    
Average Humidity 82    
Maximum Humidity 100    
Minimum Humidity 64    
Precipitation  
Precipitation 0.21 in 0.15 in 2.86 in (1969)
Month to date precipitation 6.85 3.38  
Year to date precipitation 38.21 24.18  
Sea Level Pressure  
Sea Level Pressure 29.83 in    
Wind  
Wind Speed 6 mph (NNW)    
Max Wind Speed 13 mph    
Max Gust Speed 16 mph    
Visibility 10 miles    
Events Rain    
T = Trace of Precipitation, MM = Missing Value Source: NWS Daily Summary

Daily Weather History Graph

Daily Weather History Graph

Search for Another Location

Airport or City:

Astronomy

Jul. 23, 2019 Rise Set
Actual Time 5:52 AM EDT 8:27 PM EDT
Civil Twilight 5:21 AM EDT 8:58 PM EDT
Nautical Twilight 4:42 AM EDT 9:37 PM EDT
Astronomical Twilight 3:58 AM EDT 10:21 PM EDT
Moon No Moon Rise 12:05 PM EDT (7/23)
Length of Visible Light 15h 37m
Length of Day
14h 34m
Waning Gibbous, 63% of the Moon is Illuminated
Jul 23
Waning Gibbous
Jul 24
Last Quarter
Jul 31
New
Aug 7
First Quarter
Aug 15
Full

Hourly Weather History & Observations

Time (EDT) Temp. Dew Point Humidity Pressure Visibility Wind Dir Wind Speed Gust Speed Precip Events Conditions
12:01 AM 71.1 °F 71.1 °F 100% 29.79 in 10.0 mi NW 10.4 mph - 0.03 in Rain Heavy Rain
12:52 AM 69.8 °F 69.8 °F 100% 29.77 in 10.0 mi North 4.6 mph - 0.12 in Rain Light Rain
12:54 AM 70.0 °F 70.0 °F 100% 29.78 in 10.0 mi North 4.6 mph - 0.12 in Rain Light Rain
1:10 AM 70.0 °F 70.0 °F 100% 29.77 in 10.0 mi NNW 4.6 mph - 0.00 in Rain Light Rain
1:18 AM 70.0 °F 70.0 °F 100% 29.76 in 10.0 mi NNW 4.6 mph - 0.00 in Rain Light Rain
1:31 AM 70.0 °F 70.0 °F 100% 29.76 in 10.0 mi NW 5.8 mph - 0.00 in   Overcast
1:39 AM 70.0 °F 70.0 °F 100% 29.76 in 10.0 mi NNW 6.9 mph - 0.00 in   Overcast
1:54 AM 70.0 °F 70.0 °F 100% 29.77 in 10.0 mi NNW 5.8 mph - 0.00 in   Overcast
2:54 AM 68.0 °F 68.0 °F 100% 29.77 in 10.0 mi North 10.4 mph - 0.03 in Rain Light Rain
3:54 AM 66.9 °F 66.9 °F 100% 29.77 in 10.0 mi NW 4.6 mph - 0.13 in Rain Rain
4:54 AM 66.9 °F 66.9 °F 100% 29.78 in 10.0 mi NW 5.8 mph - 0.04 in   Mostly Cloudy
5:06 AM 68.0 °F 66.9 °F 96% 29.77 in 10.0 mi WNW 4.6 mph - N/A   Overcast
5:45 AM 68.0 °F 66.9 °F 96% 29.79 in 10.0 mi West 5.8 mph - N/A   Overcast
5:54 AM 68.0 °F 66.9 °F 96% 29.80 in 10.0 mi West 3.5 mph - N/A   Overcast
6:01 AM 68.0 °F 66.9 °F 96% 29.79 in 10.0 mi West 4.6 mph - N/A   Overcast
6:54 AM 68.0 °F 66.9 °F 96% 29.81 in 10.0 mi WSW 4.6 mph - 0.01 in Rain Light Rain
7:01 AM 68.0 °F 66.9 °F 96% 29.81 in 10.0 mi West 6.9 mph - 0.00 in Rain Light Rain
7:21 AM 68.0 °F 66.9 °F 96% 29.81 in 10.0 mi WNW 8.1 mph - 0.00 in Rain Light Rain
7:54 AM 69.1 °F 66.9 °F 93% 29.85 in 10.0 mi WNW 11.5 mph - 0.00 in Rain Light Rain
8:54 AM 69.1 °F 66.9 °F 93% 29.86 in 10.0 mi NW 9.2 mph - 0.00 in   Overcast
9:54 AM 70.0 °F 66.9 °F 90% 29.87 in 10.0 mi NNW 8.1 mph - N/A   Overcast
10:14 AM 71.1 °F 66.9 °F 87% 29.86 in 10.0 mi NW 6.9 mph - N/A   Overcast
10:45 AM 72.0 °F 66.9 °F 84% 29.85 in 10.0 mi North 5.8 mph - N/A   Mostly Cloudy
10:54 AM 72.0 °F 66.0 °F 81% 29.86 in 10.0 mi NNW 8.1 mph - N/A   Overcast
11:54 AM 73.9 °F 66.9 °F 79% 29.86 in 10.0 mi NNW 8.1 mph - N/A   Overcast
12:01 PM 73.9 °F 66.9 °F 79% 29.85 in 10.0 mi North 9.2 mph - N/A   Mostly Cloudy
12:54 PM 75.0 °F 66.9 °F 76% 29.87 in 10.0 mi North 5.8 mph - N/A   Overcast
1:09 PM 75.0 °F 66.9 °F 76% 29.86 in 10.0 mi NW 11.5 mph - N/A   Overcast
1:54 PM 75.0 °F 66.0 °F 73% 29.88 in 10.0 mi North 5.8 mph - N/A   Overcast
2:01 PM 75.0 °F 66.0 °F 73% 29.87 in 10.0 mi NNE 6.9 mph - N/A   Overcast
2:54 PM 75.9 °F 64.9 °F 69% 29.88 in 10.0 mi North 6.9 mph - 0.00 in   Mostly Cloudy
4:09 PM 77.0 °F 64.0 °F 64% 29.87 in 10.0 mi NNE 8.1 mph - N/A   Mostly Cloudy
4:54 PM 75.9 °F 64.9 °F 69% 29.88 in 10.0 mi East 4.6 mph - N/A   Mostly Cloudy
5:54 PM 75.0 °F 66.0 °F 73% 29.87 in 10.0 mi ENE 4.6 mph - N/A   Scattered Clouds
6:54 PM 73.9 °F 66.0 °F 76% 29.88 in 10.0 mi East 5.8 mph - N/A   Partly Cloudy
7:54 PM 73.0 °F 66.0 °F 79% 29.89 in 10.0 mi Calm Calm - N/A   Clear
8:54 PM 72.0 °F 64.0 °F 76% 29.91 in 10.0 mi NE 5.8 mph - N/A   Mostly Cloudy
9:54 PM 70.0 °F 64.0 °F 81% 29.92 in 10.0 mi NE 4.6 mph - N/A   Clear
10:54 PM 68.0 °F 64.9 °F 90% 29.91 in 10.0 mi North 3.5 mph - N/A   Clear
11:54 PM 68.0 °F 64.9 °F 90% 29.91 in 10.0 mi Calm Calm - N/A   Clear